Location: S�tio Afonso Gruber
(26.1760°S, 49.5250°W)
Time: 18:05:22
(UTC+00:00)

DELFI C3 - Visible Passes

Search period start: 30 November 2022 00:00
Search period end: 10 December 2022 00:00
Orbit: 503 x 518 km, 97.3° (Epoch: 30 November)

Date Brightness Start Highest point End Pass type
(mag) Time Alt. Az. Time Alt. Az. Time Alt. Az.
30 Nov ? 23:14:58 10° SSW 23:17:54 21° WSW 23:20:47 10° WNW visible
01 Dec ? 22:58:05 10° S 23:01:36 35° WSW 23:05:03 10° NW visible
02 Dec ? 22:41:27 10° S 22:45:14 63° WSW 22:48:57 10° NNW visible
03 Dec ? 22:25:01 10° SSE 22:28:49 71° ENE 22:32:32 10° N visible
05 Dec ? 23:27:19 10° SW 23:29:28 15° WSW 23:31:36 10° WNW visible
06 Dec ? 23:09:58 10° SSW 23:13:05 24° WSW 23:16:08 10° NW visible
07 Dec ? 22:53:01 10° S 22:56:37 41° WSW 23:00:09 10° NNW visible
08 Dec ? 22:36:18 10° S 22:40:05 76° WSW 22:43:49 10° NNW visible
